Memphis, TN

8:26 AM CST on December 04, 2016 (GMT -0600)
Memphis International

Weather History for KMEM - May, 2013

Change the Weather History Date:

Friday, May 3, 2013

  Actual Average Record
Temperature  
Mean Temperature 51 °F 68 °F  
Max Temperature 65 °F 78 °F 91 °F (1952)
Min Temperature 37 °F 58 °F 37 °F (2013)
Degree Days  
Heating Degree Days 14 1  
Month to date heating degree days 14 4  
Since 1 July heating degree days 2890 2949  
Cooling Degree Days 0 4  
Month to date cooling degree days 9 12  
Year to date cooling degree days 85 107  
Moisture  
Dew Point 45 °F    
Average Humidity 86    
Maximum Humidity 96    
Minimum Humidity 76    
Precipitation  
Precipitation 3.00 in 0.19 in 3.05 in (1979)
Month to date precipitation 3.88 0.56  
Year to date precipitation 27.71 19.59  
Snow  
Snow 0.00 in 0.00 in - ()
Month to date snowfall 0.0 0.0  
Since 1 July snowfall 0.9 3.8  
Snow Depth 0.00 in    
Sea Level Pressure  
Sea Level Pressure 29.95 in    
Wind  
Wind Speed 9 mph (WNW)    
Max Wind Speed 17 mph    
Max Gust Speed 24 mph    
Visibility 4 miles    
Events Rain    
T = Trace of Precipitation, MM = Missing Value Source: NWS Daily Summary

Daily Weather History Graph

Daily Weather History Graph

Search for Another Location

Airport or City:

Trip Planner

Search our weather history database for the weather conditions in past years. The results will help you decide how hot, cold, wet, or windy it might be!

Date:

Astronomy

May. 03, 2013 Rise Set
Actual Time 6:06 AM CDT 7:47 PM CDT
Civil Twilight 5:39 AM CDT 8:14 PM CDT
Nautical Twilight 5:06 AM CDT 8:47 PM CDT
Astronomical Twilight 4:32 AM CDT 9:22 PM CDT
Moon 2:16 AM CDT (5/3) 1:55 PM CDT (5/3)
Length of Visible Light 14h 35m
Length of Day
13h 40m
Last Quarter, 37% of the Moon is Illuminated
May 3
Last Quarter
May 9
New
May 17
First Quarter
May 24
Full
May 31
Last Quarter

Hourly Weather History & Observations

Time (CDT) Temp. Windchill Dew Point Humidity Pressure Visibility Wind Dir Wind Speed Gust Speed Precip Events Conditions
12:31 AM 64.4 °F - 62.6 °F 94% 29.99 in 3.0 mi East 5.8 mph - N/A   Overcast
12:54 AM 64.9 °F - 62.1 °F 90% 29.98 in 3.0 mi East 3.5 mph - N/A   Overcast
1:11 AM 64.4 °F - 62.6 °F 94% 29.98 in 3.0 mi SE 4.6 mph - 0.00 in Rain Light Rain
1:19 AM 64.4 °F - 62.6 °F 94% 29.97 in 3.0 mi Variable 5.8 mph - 0.00 in Rain Light Rain
1:54 AM 64.0 °F - 61.0 °F 90% 29.95 in 3.0 mi SE 6.9 mph - 0.09 in Rain Rain
2:13 AM 64.4 °F - 60.8 °F 88% 29.95 in 3.0 mi SSE 5.8 mph - 0.02 in Rain Light Rain
2:26 AM 64.4 °F - 60.8 °F 88% 29.94 in 3.0 mi SE 5.8 mph - 0.05 in Rain Rain
2:54 AM 64.0 °F - 61.0 °F 90% 29.92 in 3.0 mi South 3.5 mph - 0.08 in Rain Light Rain
3:18 AM 62.6 °F - 60.8 °F 94% 29.93 in 3.0 mi SSW 5.8 mph - 0.03 in Rain Heavy Rain
3:26 AM 62.6 °F - 60.8 °F 94% 29.92 in 3.0 mi WSW 4.6 mph - 0.08 in Rain Heavy Rain
3:37 AM 60.8 °F - 57.2 °F 88% 29.93 in 2.0 mi West 9.2 mph - 0.10 in Rain Rain
3:51 AM 55.4 °F - 53.6 °F 94% 29.93 in 1.5 mi WNW 11.5 mph - 0.13 in Rain Heavy Rain
3:54 AM 55.9 °F - 54.0 °F 93% 29.92 in 1.5 mi WNW 11.5 mph - 0.14 in Rain Heavy Rain
4:03 AM 55.4 °F - 53.6 °F 94% 29.93 in 3.0 mi WNW 10.4 mph - 0.05 in Rain Heavy Rain
4:49 AM 53.6 °F - 51.8 °F 94% 29.92 in 3.0 mi WNW 8.1 mph - 0.22 in Rain Heavy Rain
4:54 AM 53.1 °F - 52.0 °F 96% 29.92 in 3.0 mi NW 9.2 mph - 0.25 in Rain Heavy Rain
5:54 AM 52.0 °F - 50.0 °F 93% 29.92 in 3.0 mi WNW 8.1 mph - 0.25 in Rain Heavy Rain
6:27 AM 50.0 °F - 48.2 °F 94% 29.92 in 2.5 mi WNW 10.4 mph 18.4 mph 0.10 in Rain Heavy Rain
6:36 AM 50.0 °F - 48.2 °F 94% 29.92 in 4.0 mi WNW 10.4 mph - 0.14 in Rain Rain
6:54 AM 48.9 °F - 46.9 °F 93% 29.93 in 3.0 mi WNW 11.5 mph - 0.18 in Rain Rain
7:09 AM 48.2 °F - 46.4 °F 93% 29.93 in 2.0 mi WNW 9.2 mph - 0.06 in Rain Heavy Rain
7:43 AM 46.4 °F 40.7 °F 44.6 °F 93% 29.93 in 3.0 mi NW 12.7 mph - 0.23 in Rain Rain
7:54 AM 46.9 °F - 45.0 °F 93% 29.94 in 3.0 mi WNW 12.7 mph 18.4 mph 0.26 in Rain Rain
8:33 AM 46.4 °F 41.1 °F 44.6 °F 93% 29.94 in 5.0 mi WNW 11.5 mph 21.9 mph 0.14 in Rain Heavy Rain
8:54 AM 45.0 °F 38.2 °F 43.0 °F 93% 29.94 in 5.0 mi WNW 15.0 mph - 0.18 in Rain Heavy Rain
9:04 AM 44.6 °F 39.2 °F 42.8 °F 93% 29.94 in 2.0 mi WNW 10.4 mph - 0.07 in Rain Heavy Rain
9:13 AM 44.6 °F 37.8 °F 42.8 °F 93% 29.94 in 3.0 mi NW 15.0 mph 19.6 mph 0.09 in Rain Heavy Rain
9:45 AM 44.6 °F 38.4 °F 41.0 °F 87% 29.94 in 3.0 mi WNW 12.7 mph - 0.20 in Rain Heavy Rain
9:54 AM 44.1 °F 38.1 °F 42.1 °F 93% 29.94 in 3.0 mi NW 11.5 mph 18.4 mph 0.23 in Rain Heavy Rain
10:03 AM 44.6 °F 38.8 °F 41.0 °F 87% 29.94 in 3.0 mi NNW 11.5 mph 19.6 mph 0.02 in Rain Rain
10:18 AM 44.6 °F 39.7 °F 42.8 °F 93% 29.95 in 3.0 mi WNW 9.2 mph 17.3 mph 0.06 in Rain Heavy Rain
10:41 AM 42.8 °F 37.0 °F 41.0 °F 93% 29.95 in 2.5 mi WNW 10.4 mph - 0.14 in Rain Heavy Rain
10:43 AM 42.8 °F 37.5 °F 41.0 °F 93% 29.95 in 3.0 mi WNW 9.2 mph - 0.15 in Rain Heavy Rain
10:54 AM 44.1 °F 38.6 °F 41.0 °F 89% 29.95 in 3.0 mi WNW 10.4 mph - 0.19 in Rain Heavy Rain
11:17 AM 44.6 °F 40.2 °F 41.0 °F 87% 29.96 in 3.0 mi NW 8.1 mph - 0.11 in Rain Heavy Rain
11:54 AM 44.1 °F 40.1 °F 42.1 °F 93% 29.93 in 3.0 mi NW 6.9 mph - 0.31 in Rain Heavy Rain
12:21 PM 44.6 °F 38.8 °F 41.0 °F 87% 29.93 in 3.0 mi WNW 11.5 mph - 0.11 in Rain Rain
12:54 PM 44.1 °F 39.0 °F 42.1 °F 93% 29.93 in 3.0 mi WNW 9.2 mph - 0.27 in Rain Heavy Rain
1:07 PM 44.6 °F 40.2 °F 42.8 °F 93% 29.93 in 3.0 mi WNW 8.1 mph - 0.05 in Rain Heavy Rain
1:18 PM 44.6 °F 38.4 °F 42.8 °F 93% 29.93 in 2.5 mi West 12.7 mph - 0.10 in Rain Heavy Rain
1:24 PM 44.6 °F 38.4 °F 41.0 °F 87% 29.94 in 2.5 mi West 12.7 mph - 0.13 in Rain Heavy Rain
1:54 PM 43.0 °F 36.4 °F 41.0 °F 93% 29.93 in 2.5 mi WNW 12.7 mph - 0.26 in Rain Heavy Rain
2:07 PM 42.8 °F 35.4 °F 41.0 °F 93% 29.93 in 3.0 mi WNW 15.0 mph 18.4 mph 0.05 in Rain Heavy Rain
2:36 PM 44.6 °F 38.4 °F 41.0 °F 87% 29.93 in 3.0 mi WNW 12.7 mph 23.0 mph 0.11 in Rain Rain
2:41 PM 44.6 °F 38.8 °F 42.8 °F 93% 29.93 in 2.5 mi West 11.5 mph - 0.12 in Rain Rain
2:54 PM 44.1 °F 38.6 °F 41.0 °F 89% 29.94 in 2.5 mi West 10.4 mph - 0.13 in Rain Rain
3:01 PM 44.6 °F 38.1 °F 41.0 °F 87% 29.95 in 2.5 mi West 13.8 mph - 0.03 in Rain Heavy Rain
3:17 PM 44.6 °F 38.8 °F 41.0 °F 87% 29.94 in 2.5 mi West 11.5 mph - 0.06 in Rain Rain
3:37 PM 44.6 °F 39.2 °F 41.0 °F 87% 29.95 in 2.5 mi West 10.4 mph 17.3 mph 0.09 in Rain Light Rain
3:48 PM 44.6 °F 38.8 °F 41.0 °F 87% 29.94 in 2.5 mi West 11.5 mph 18.4 mph 0.12 in Rain Rain
3:54 PM 44.1 °F 38.6 °F 41.0 °F 89% 29.94 in 2.5 mi WNW 10.4 mph 18.4 mph 0.12 in Rain Rain
4:07 PM 42.8 °F 37.0 °F 41.0 °F 93% 29.93 in 2.5 mi West 10.4 mph - 0.02 in Rain Rain
4:21 PM 42.8 °F 38.6 °F 41.0 °F 93% 29.96 in 4.0 mi WSW 6.9 mph 16.1 mph 0.05 in Rain Light Rain
4:39 PM 44.6 °F 39.7 °F 39.2 °F 81% 29.95 in 10.0 mi West 9.2 mph 20.7 mph 0.06 in Rain Light Rain
4:54 PM 44.1 °F 38.6 °F 39.9 °F 85% 29.95 in 10.0 mi West 10.4 mph 20.7 mph 0.06 in Rain Light Rain
5:28 PM 44.6 °F 37.8 °F 39.2 °F 81% 29.95 in 10.0 mi West 15.0 mph 19.6 mph 0.00 in   Overcast
5:54 PM 44.1 °F 38.1 °F 39.9 °F 85% 29.95 in 10.0 mi West 11.5 mph - 0.00 in   Overcast
6:36 PM 42.8 °F 36.2 °F 39.2 °F 87% 29.96 in 10.0 mi West 12.7 mph 23.0 mph N/A   Overcast
6:54 PM 43.0 °F 36.8 °F 39.0 °F 86% 29.97 in 10.0 mi West 11.5 mph 19.6 mph N/A   Overcast
7:29 PM 42.8 °F 37.5 °F 37.4 °F 81% 29.98 in 10.0 mi West 9.2 mph - N/A   Overcast
7:54 PM 43.0 °F 36.8 °F 37.0 °F 80% 29.98 in 10.0 mi West 11.5 mph - N/A   Overcast
8:54 PM 43.0 °F 37.2 °F 36.0 °F 76% 30.00 in 10.0 mi West 10.4 mph 17.3 mph N/A   Mostly Cloudy
9:37 PM 42.8 °F 38.6 °F 35.6 °F 76% 30.01 in 10.0 mi West 6.9 mph - N/A   Scattered Clouds
9:54 PM 42.1 °F 37.1 °F 35.1 °F 76% 30.01 in 10.0 mi WNW 8.1 mph - N/A   Scattered Clouds
10:54 PM 39.9 °F 37.8 °F 35.1 °F 83% 29.99 in 10.0 mi WNW 3.5 mph - N/A   Partly Cloudy
11:54 PM 39.9 °F - 35.1 °F 83% 29.99 in 10.0 mi Calm Calm - N/A   Clear